Location: C�an Torras
(41.5052°N, 1.9280°E)
Time: 00:24:40
(UTC+00:00)

Okean 1-7 Rocket - Pass Details

Date: 20 January 2021
Orbit: 615 x 650 km, 82.5° (Epoch: 08 March)

Event Time Altitude Azimuth Distance (km) Brightness Sun altitude
Rises 17:32:49 0° 163° (SSE) 2,934 7.1 -7.6°
Reaches altitude 10° 17:35:12 10° 154° (SSE) 2,034 6.2 -8.0°
Maximum altitude 17:39:15 33° 90° (E) 1,081 4.3 -8.7°
Drops below altitude 10° 17:43:22 10° 27° (NNE) 2,061 5.8 -9.5°
Sets 17:45:47 0° 18° (NNE) 2,978 6.7 -9.9°
